Location: Linz
(48.3300°N, 14.3000°E)
Time: 19:12:13
(UTC+02:00)

YUBILEINY - Pass Details

Date: 01 March 2019
Orbit: 1478 x 1508 km, 82.5° (Epoch: 15 October)

Event Time Altitude Azimuth Distance (km) Brightness Sun altitude
Rises 01:43:51 0° 123° (ESE) 4,593 ? -45.3°
Reaches altitude 10° 01:48:18 10° 102° (ESE) 3,621 ? -44.9°
Maximum altitude 01:52:42 15° 71° (ENE) 3,236 ? -44.5°
Drops below altitude 10° 01:57:05 10° 40° (NE) 3,639 ? -44.1°
Sets 02:01:32 0° 20° (NNE) 4,629 ? -43.6°
